Plainview, TX

4:13 PM CDT on September 27, 2016 (GMT -0500)
Hale County

Weather History for KPVW - April, 2014

Change the Weather History Date:

Sunday, April 27, 2014

  Actual Average Record
Temperature  
Mean Temperature 62 °F -  
Max Temperature 75 °F 76 °F 95 °F (1959)
Min Temperature 50 °F 47 °F 28 °F (1920)
Degree Days  
Heating Degree Days 2    
Growing Degree Days 12 (Base 50)    
Moisture  
Dew Point 23 °F    
Average Humidity 23    
Maximum Humidity 40    
Minimum Humidity 9    
Precipitation  
Precipitation 0.00 in - - ()
Sea Level Pressure  
Sea Level Pressure 29.54 in    
Wind  
Wind Speed 23 mph (West)    
Max Wind Speed 40 mph    
Max Gust Speed 52 mph    
Visibility 7 miles    
Events      
Averages and records for this station are not official NWS values.
T = Trace of Precipitation, MM = Missing Value Source: NWS Daily Summary

Daily Weather History Graph

Daily Weather History Graph

Search for Another Location

Airport or City:

Trip Planner

Search our weather history database for the weather conditions in past years. The results will help you decide how hot, cold, wet, or windy it might be!

Date:

Astronomy

Apr. 27, 2014 Rise Set
Actual Time 7:01 AM CDT 8:27 PM CDT
Civil Twilight 6:35 AM CDT 8:54 PM CDT
Nautical Twilight 6:03 AM CDT 9:26 PM CDT
Astronomical Twilight 5:30 AM CDT 9:59 PM CDT
Moon 5:58 AM CDT 7:07 PM CDT
Length of Visible Light 14h 19m
Length of Day
13h 26m
Waning Crescent, 3% of the Moon is Illuminated
Apr 27
Waning Crescent
Apr 29
New
May 6
First Quarter
May 14
Full
May 21
Last Quarter

Hourly Weather History & Observations

Time (CDT) Temp. Dew Point Humidity Pressure Visibility Wind Dir Wind Speed Gust Speed Precip Events Conditions
12:15 AM 75.2 °F 12.9 °F 9% 29.51 in 7.0 mi SW 16.1 mph 28.8 mph N/A   Mostly Cloudy
12:35 AM 75.2 °F 14.5 °F 10% 29.51 in 10.0 mi SW 13.8 mph 23.0 mph N/A   Mostly Cloudy
12:55 AM 74.3 °F 16.2 °F 11% 29.51 in 10.0 mi SSW 15.0 mph 20.7 mph N/A   Scattered Clouds
1:15 AM 66.7 °F 32.2 °F 28% 29.56 in 3.0 mi WNW 19.6 mph 32.2 mph N/A   Haze
1:35 AM 64.6 °F 32.4 °F 30% 29.58 in 5.0 mi NW 17.3 mph 21.9 mph N/A   Haze
1:55 AM 62.2 °F 32.4 °F 33% 29.58 in 5.0 mi WNW 27.6 mph 33.4 mph N/A   Haze
2:15 AM 60.4 °F 32.0 °F 34% 29.57 in 7.0 mi WNW 21.9 mph 38.0 mph N/A   Scattered Clouds
2:35 AM 59.9 °F 31.6 °F 34% 29.58 in 10.0 mi WNW 20.7 mph 25.3 mph N/A   Mostly Cloudy
2:55 AM 59.9 °F 31.1 °F 34% 29.60 in 10.0 mi West 16.1 mph 23.0 mph N/A   Mostly Cloudy
3:15 AM 59.9 °F 31.1 °F 34% 29.60 in 10.0 mi WNW 16.1 mph - N/A   Mostly Cloudy
3:35 AM 57.6 °F 28.0 °F 32% 29.61 in 10.0 mi West 21.9 mph 28.8 mph N/A   Mostly Cloudy
3:55 AM 57.4 °F 27.3 °F 32% 29.61 in 10.0 mi WNW 23.0 mph 29.9 mph N/A   Mostly Cloudy
4:15 AM 56.5 °F 26.8 °F 32% 29.62 in 10.0 mi WNW 18.4 mph 29.9 mph N/A   Mostly Cloudy
4:35 AM 54.9 °F 26.4 °F 33% 29.61 in 10.0 mi West 16.1 mph 23.0 mph N/A   Scattered Clouds
5:15 AM 54.9 °F 26.6 °F 34% 29.60 in 10.0 mi West 16.1 mph 23.0 mph N/A   Clear
5:35 AM 52.3 °F 25.3 °F 35% 29.60 in 10.0 mi West 19.6 mph 23.0 mph N/A   Clear
5:55 AM 52.3 °F 24.8 °F 34% 29.59 in 10.0 mi West 23.0 mph 28.8 mph N/A   Clear
6:15 AM 51.1 °F 24.3 °F 35% 29.59 in 10.0 mi West 17.3 mph - N/A   Clear
6:35 AM 50.0 °F 23.5 °F 36% 29.58 in 10.0 mi West 16.1 mph - N/A   Clear
6:55 AM 50.0 °F 24.3 °F 37% 29.57 in 10.0 mi West 13.8 mph - N/A   Clear
7:15 AM 50.0 °F 26.1 °F 39% 29.57 in 10.0 mi WSW 12.7 mph - N/A   Clear
7:55 AM 50.0 °F 26.4 °F 40% 29.57 in 10.0 mi WSW 13.8 mph - N/A   Clear
8:15 AM 52.2 °F 25.7 °F 36% 29.56 in 10.0 mi WSW 15.0 mph - N/A   Clear
8:35 AM 54.9 °F 25.7 °F 32% 29.55 in 10.0 mi WSW 19.6 mph 27.6 mph N/A   Clear
8:55 AM 54.9 °F 24.4 °F 31% 29.55 in 10.0 mi WSW 25.3 mph 31.1 mph N/A   Clear
9:15 AM 57.4 °F 24.8 °F 29% 29.55 in 10.0 mi West 27.6 mph 38.0 mph N/A   Clear
9:35 AM 57.4 °F 24.3 °F 28% 29.55 in 10.0 mi West 27.6 mph 36.8 mph N/A   Clear
9:55 AM 59.9 °F 25.0 °F 26% 29.54 in 10.0 mi West 28.8 mph 38.0 mph N/A   Clear
10:15 AM 60.3 °F 24.4 °F 25% 29.54 in 7.0 mi West 31.1 mph 38.0 mph N/A   Clear
10:35 AM 61.5 °F 23.9 °F 24% 29.54 in 5.0 mi West 28.8 mph 44.9 mph N/A   Haze
10:55 AM 62.6 °F 23.7 °F 23% 29.54 in 5.0 mi West 31.1 mph 40.3 mph N/A   Haze
11:15 AM 63.7 °F 24.1 °F 22% 29.54 in 4.0 mi WSW 32.2 mph 40.3 mph N/A   Haze
11:35 AM 64.6 °F 24.6 °F 22% 29.54 in 4.0 mi West 29.9 mph 40.3 mph N/A   Haze
11:55 AM 67.3 °F 26.4 °F 22% 29.54 in 4.0 mi West 32.2 mph 42.6 mph N/A   Haze
12:15 PM 67.5 °F 25.9 °F 21% 29.53 in 5.0 mi West 31.1 mph 43.7 mph N/A   Haze
12:35 PM 67.5 °F 25.5 °F 21% 29.53 in 5.0 mi West 31.1 mph 43.7 mph N/A   Haze
12:55 PM 70.0 °F 27.7 °F 21% 29.52 in 4.0 mi West 28.8 mph 41.4 mph N/A   Haze
1:15 PM 70.0 °F 24.8 °F 18% 29.52 in 4.0 mi West 33.4 mph 42.6 mph N/A   Haze
1:35 PM 70.0 °F 23.5 °F 17% 29.50 in 4.0 mi West 36.8 mph 42.6 mph N/A   Haze
1:55 PM 70.0 °F 22.3 °F 17% 29.50 in 4.0 mi West 34.5 mph 47.2 mph N/A   Haze
2:15 PM 70.0 °F 23.2 °F 17% 29.50 in 4.0 mi West 40.3 mph 51.8 mph N/A   Haze
2:55 PM 70.2 °F 21.7 °F 16% 29.49 in 4.0 mi West 38.0 mph 48.3 mph N/A   Haze
3:15 PM 70.0 °F 22.1 °F 16% 29.48 in 4.0 mi West 32.2 mph 44.9 mph N/A   Haze
3:35 PM 70.0 °F 22.1 °F 16% 29.49 in 3.0 mi West 31.1 mph 43.7 mph N/A   Haze
3:55 PM 70.0 °F 22.8 °F 17% 29.48 in 3.0 mi West 31.1 mph 47.2 mph N/A   Haze
4:15 PM 70.0 °F 20.7 °F 15% 29.48 in 3.0 mi West 38.0 mph 48.3 mph N/A   Haze
4:35 PM 70.0 °F 19.2 °F 15% 29.47 in 3.0 mi West 40.3 mph 47.2 mph N/A   Haze
5:15 PM 70.0 °F 17.1 °F 13% 29.47 in 3.0 mi West 38.0 mph 51.8 mph N/A   Haze
5:35 PM 70.0 °F 16.9 °F 13% 29.47 in 4.0 mi West 35.7 mph 49.5 mph N/A   Haze
5:55 PM 70.0 °F 17.8 °F 14% 29.46 in 5.0 mi West 36.8 mph 47.2 mph N/A   Haze
6:15 PM 70.0 °F 17.4 °F 13% 29.47 in 5.0 mi West 32.2 mph 40.3 mph N/A   Haze
6:35 PM 70.0 °F 16.9 °F 13% 29.48 in 5.0 mi West 35.7 mph 47.2 mph N/A   Haze
6:55 PM 70.0 °F 17.1 °F 13% 29.49 in 4.0 mi West 33.4 mph 43.7 mph N/A   Haze
7:15 PM 70.0 °F 18.7 °F 14% 29.49 in 4.0 mi West 31.1 mph 40.3 mph N/A   Haze
7:35 PM 70.0 °F 19.4 °F 15% 29.50 in 7.0 mi West 32.2 mph 39.1 mph N/A   Scattered Clouds
7:55 PM 67.5 °F 18.0 °F 15% 29.51 in 5.0 mi West 31.1 mph 39.1 mph N/A   Haze
8:15 PM 66.2 °F 18.0 °F 16% 29.52 in 5.0 mi WNW 25.3 mph 35.7 mph N/A   Haze
8:35 PM 64.9 °F 18.5 °F 17% 29.53 in 7.0 mi West 25.3 mph 36.8 mph N/A   Mostly Cloudy
8:55 PM 63.1 °F 18.5 °F 18% 29.54 in 7.0 mi West 25.3 mph 31.1 mph N/A   Scattered Clouds
9:15 PM 63.1 °F 18.0 °F 18% 29.55 in 7.0 mi West 25.3 mph 35.7 mph N/A   Clear
9:35 PM 62.6 °F 17.1 °F 17% 29.55 in 7.0 mi West 20.7 mph 27.6 mph N/A   Mostly Cloudy
9:55 PM 62.6 °F 16.3 °F 17% 29.57 in 7.0 mi West 24.2 mph 29.9 mph N/A   Mostly Cloudy
10:15 PM 61.0 °F 15.8 °F 17% 29.58 in 7.0 mi West 18.4 mph 25.3 mph N/A   Clear
10:35 PM 60.1 °F 15.3 °F 17% 29.59 in 7.0 mi West 19.6 mph 25.3 mph N/A   Clear
10:55 PM 59.9 °F 15.8 °F 18% 29.59 in 10.0 mi West 17.3 mph 25.3 mph N/A   Clear
11:15 PM 59.9 °F 16.0 °F 18% 29.60 in 10.0 mi West 17.3 mph 24.2 mph N/A   Clear
11:35 PM 58.1 °F 14.2 °F 18% 29.60 in 10.0 mi West 17.3 mph - N/A   Clear
11:55 PM 59.9 °F 14.5 °F 17% 29.61 in 10.0 mi West 19.6 mph 26.5 mph N/A   Clear